HBIKS LSZL-LIEO

Flight info

Callsign HBIKS
Flight time N/A
Altitude 41000
Route LAGEN DCT ERTEV DCT TORTU DCT OKROK DCT AJO A9 CORSI
Aircraft CL60/M-SBDE1E2E3FGHIJ1J4J5J7M3RWXYZ/LB1V1D1

Departure

Time N/A
Airport Locarno Airport (LSZL)

Arrival

Time 2026-04-28 20:46
Airport Olbia Costa Smeralda Airport (LIEO)
Time Latitude Longitude Altitude Speed Heading
2026-04-28 19:48 45.22089 8.59918 31966 ft 442 kts 189°
2026-04-28 19:48 45.19031 8.59537 32349 ft 444 kts 189°
2026-04-28 19:49 45.15945 8.59153 32695 ft 447 kts 189°
2026-04-28 19:49 45.12865 8.58770 33011 ft 449 kts 189°
2026-04-28 19:49 45.09733 8.58381 33312 ft 451 kts 189°
2026-04-28 19:49 45.06552 8.57987 33603 ft 453 kts 189°
2026-04-28 19:50 45.00272 8.57352 34204 ft 458 kts 184°
2026-04-28 19:50 44.97053 8.57671 34578 ft 462 kts 176°
2026-04-28 19:50 44.93927 8.58409 34855 ft 463 kts 174°
2026-04-28 19:51 44.90734 8.59200 35127 ft 463 kts 174°
2026-04-28 19:51 44.87561 8.59982 35411 ft 462 kts 174°
2026-04-28 19:51 44.84394 8.60762 35699 ft 461 kts 174°
2026-04-28 19:51 44.81249 8.61535 35968 ft 461 kts 174°
2026-04-28 19:52 44.78057 8.62320 36216 ft 460 kts 174°
2026-04-28 19:52 44.74898 8.63096 36451 ft 461 kts 174°
2026-04-28 19:52 44.71783 8.63861 36734 ft 460 kts 174°
2026-04-28 19:52 44.68601 8.64641 37015 ft 460 kts 174°
2026-04-28 19:53 44.65489 8.65403 37280 ft 461 kts 174°
2026-04-28 19:53 44.62294 8.66185 37522 ft 461 kts 174°
2026-04-28 19:53 44.59172 8.66948 37778 ft 461 kts 174°
2026-04-28 19:53 44.56252 8.67662 38016 ft 461 kts 174°
2026-04-28 19:54 44.53100 8.68430 38254 ft 461 kts 174°
2026-04-28 19:54 44.49954 8.69198 38470 ft 460 kts 174°
2026-04-28 19:54 44.46838 8.69957 38680 ft 460 kts 174°
2026-04-28 19:54 44.43678 8.70726 38879 ft 460 kts 174°
2026-04-28 19:55 44.40510 8.71496 39074 ft 460 kts 174°
2026-04-28 19:55 44.37353 8.72263 39250 ft 460 kts 174°
2026-04-28 19:55 44.34199 8.73028 39405 ft 460 kts 174°
2026-04-28 19:55 44.31045 8.73792 39540 ft 461 kts 174°
2026-04-28 19:56 44.27911 8.74551 39672 ft 461 kts 174°
2026-04-28 19:56 44.24747 8.75316 39795 ft 461 kts 174°
2026-04-28 19:56 44.21585 8.76080 39905 ft 461 kts 174°
2026-04-28 19:56 44.18425 8.76842 40018 ft 462 kts 174°
2026-04-28 19:57 44.15278 8.77601 40101 ft 462 kts 174°
2026-04-28 19:57 44.08906 8.79134 40254 ft 462 kts 174°
2026-04-28 19:58 44.02587 8.80652 40437 ft 462 kts 174°
2026-04-28 19:58 43.96267 8.82167 40595 ft 461 kts 174°
2026-04-28 19:59 43.89955 8.83677 40701 ft 462 kts 174°
2026-04-28 19:59 43.83622 8.85188 40817 ft 462 kts 174°
2026-04-28 20:00 43.77257 8.86704 40901 ft 463 kts 174°
2026-04-28 20:00 43.70913 8.88212 41002 ft 463 kts 174°
2026-04-28 20:01 43.64582 8.89713 41012 ft 465 kts 174°
2026-04-28 20:01 43.58164 8.91232 41008 ft 468 kts 174°
2026-04-28 20:02 43.51781 8.92739 41012 ft 471 kts 174°
2026-04-28 20:02 43.45306 8.94264 41013 ft 474 kts 174°
2026-04-28 20:03 43.38761 8.95527 41003 ft 474 kts 181°
2026-04-28 20:03 43.32235 8.95065 41002 ft 472 kts 188°
2026-04-28 20:04 43.25656 8.94293 41000 ft 472 kts 188°
2026-04-28 20:04 43.19149 8.93535 41006 ft 471 kts 188°
2026-04-28 20:05 43.12625 8.92778 40999 ft 470 kts 188°
2026-04-28 20:05 43.06136 8.92027 40996 ft 470 kts 188°
2026-04-28 20:06 42.99622 8.91276 41010 ft 470 kts 188°
2026-04-28 20:06 42.93110 8.90527 41004 ft 470 kts 188°
2026-04-28 20:07 42.86594 8.89780 40995 ft 470 kts 188°
2026-04-28 20:07 42.80131 8.89041 40992 ft 470 kts 188°
2026-04-28 20:08 42.73605 8.88295 40998 ft 470 kts 188°
2026-04-28 20:08 42.67086 8.87553 41003 ft 469 kts 188°
2026-04-28 20:09 42.60590 8.86814 41010 ft 469 kts 188°
2026-04-28 20:09 42.54111 8.86079 41008 ft 470 kts 188°
2026-04-28 20:10 42.47630 8.85346 41013 ft 469 kts 188°
2026-04-28 20:10 42.41131 8.84612 41027 ft 468 kts 188°
2026-04-28 20:11 42.34630 8.83880 41047 ft 468 kts 187°
2026-04-28 20:11 42.28164 8.83152 41056 ft 469 kts 187°
2026-04-28 20:12 42.21678 8.82427 41056 ft 463 kts 187°
2026-04-28 20:12 42.15337 8.81721 41041 ft 452 kts 187°
2026-04-28 20:12 42.12271 8.81381 40845 ft 442 kts 187°
2026-04-28 20:13 42.09195 8.81039 40365 ft 441 kts 187°
2026-04-28 20:13 42.06137 8.80697 39706 ft 443 kts 187°
2026-04-28 20:13 42.03096 8.80356 38734 ft 445 kts 187°
2026-04-28 20:13 41.99983 8.80007 37677 ft 449 kts 187°
2026-04-28 20:14 41.96874 8.79659 36608 ft 452 kts 187°
2026-04-28 20:14 41.93750 8.79310 35748 ft 454 kts 187°
2026-04-28 20:14 41.90585 8.78957 34966 ft 455 kts 187°
2026-04-28 20:14 41.87412 8.78604 34156 ft 455 kts 187°
2026-04-28 20:15 41.84302 8.78259 33228 ft 456 kts 186°
2026-04-28 20:15 41.81130 8.77907 32193 ft 458 kts 186°
2026-04-28 20:15 41.77948 8.77572 31206 ft 458 kts 185°
2026-04-28 20:15 41.74820 8.77637 30437 ft 454 kts 178°
2026-04-28 20:16 41.71697 8.77916 30258 ft 434 kts 178°
2026-04-28 20:16 41.68796 8.78169 30239 ft 407 kts 178°
2026-04-28 20:16 41.66047 8.78409 30234 ft 382 kts 178°
2026-04-28 20:16 41.63460 8.78633 30038 ft 366 kts 178°
2026-04-28 20:17 41.60965 8.78849 29578 ft 359 kts 178°
2026-04-28 20:17 41.58487 8.79062 28999 ft 354 kts 178°
2026-04-28 20:17 41.56029 8.79273 28401 ft 351 kts 178°
2026-04-28 20:17 41.53601 8.79481 27812 ft 348 kts 178°
2026-04-28 20:18 41.51194 8.79688 27232 ft 344 kts 178°
2026-04-28 20:18 41.48810 8.79892 26648 ft 341 kts 178°
2026-04-28 20:18 41.46456 8.80094 26075 ft 338 kts 178°
2026-04-28 20:18 41.44132 8.80293 25500 ft 335 kts 178°
2026-04-28 20:19 41.41854 8.80488 25067 ft 327 kts 178°
2026-04-28 20:19 41.39607 8.80682 24897 ft 312 kts 178°
2026-04-28 20:19 41.37494 8.80864 24610 ft 304 kts 178°
2026-04-28 20:19 41.35403 8.81043 24199 ft 299 kts 178°
2026-04-28 20:20 41.33332 8.81220 23763 ft 297 kts 178°
2026-04-28 20:20 41.31278 8.81396 23303 ft 295 kts 178°
2026-04-28 20:20 41.29266 8.81840 22839 ft 295 kts 158°
2026-04-28 20:20 41.27602 8.83397 22301 ft 297 kts 137°
2026-04-28 20:21 41.26143 8.85326 21770 ft 297 kts 137°
2026-04-28 20:21 41.24677 8.87230 21286 ft 295 kts 138°
2026-04-28 20:21 41.23206 8.89092 20807 ft 292 kts 139°
2026-04-28 20:21 41.21712 8.90937 20377 ft 290 kts 139°
2026-04-28 20:22 41.20231 8.92718 20046 ft 289 kts 140°
2026-04-28 20:22 41.18729 8.94482 19676 ft 288 kts 141°
2026-04-28 20:22 41.17215 8.96214 19342 ft 286 kts 141°
2026-04-28 20:22 41.15704 8.97901 19006 ft 285 kts 142°
2026-04-28 20:23 41.14172 8.99569 18642 ft 284 kts 143°
2026-04-28 20:23 41.12629 9.01207 18302 ft 282 kts 143°
2026-04-28 20:23 41.11082 9.02788 17970 ft 281 kts 146°
2026-04-28 20:23 41.09501 9.04275 17661 ft 279 kts 147°
2026-04-28 20:24 41.07920 9.05733 17357 ft 277 kts 147°
2026-04-28 20:24 41.06341 9.07191 17038 ft 276 kts 147°
2026-04-28 20:24 41.06188 9.07332 17007 ft 276 kts 147°
2026-04-28 20:24 41.04848 9.08568 16748 ft 275 kts 147°
2026-04-28 20:25 41.03286 9.10008 16423 ft 274 kts 146°
2026-04-28 20:25 41.01791 9.11607 15947 ft 280 kts 133°
2026-04-28 20:25 41.00780 9.13794 15556 ft 283 kts 110°
2026-04-28 20:25 41.00474 9.16357 15215 ft 283 kts 86°
2026-04-28 20:26 41.00961 9.18869 14854 ft 282 kts 62°
2026-04-28 20:26 41.02019 9.21047 14528 ft 281 kts 54°
2026-04-28 20:26 41.03123 9.23139 14226 ft 280 kts 54°
2026-04-28 20:26 41.04230 9.25252 13935 ft 278 kts 54°
2026-04-28 20:27 41.05315 9.27352 13628 ft 276 kts 58°
2026-04-28 20:27 41.06018 9.29685 13295 ft 275 kts 79°
2026-04-28 20:27 41.06016 9.32161 12905 ft 274 kts 103°
2026-04-28 20:27 41.05297 9.34477 12532 ft 270 kts 126°
2026-04-28 20:28 41.04011 9.36209 12170 ft 266 kts 145°
2026-04-28 20:28 41.02507 9.37583 11832 ft 264 kts 147°
2026-04-28 20:28 41.00918 9.38745 11451 ft 260 kts 163°
2026-04-28 20:28 40.99140 9.39027 11023 ft 255 kts 187°
2026-04-28 20:29 40.97478 9.38341 10612 ft 251 kts 211°
2026-04-28 20:29 40.96175 9.36856 10210 ft 248 kts 230°
2026-04-28 20:29 40.95176 9.35034 10033 ft 239 kts 235°
2026-04-28 20:29 40.94220 9.33213 9869 ft 246 kts 234°
2026-04-28 20:30 40.93251 9.31377 9706 ft 245 kts 234°
2026-04-28 20:30 40.92273 9.29523 9556 ft 245 kts 234°
2026-04-28 20:30 40.91300 9.27679 9406 ft 244 kts 234°
2026-04-28 20:30 40.90326 9.25836 9282 ft 243 kts 234°
2026-04-28 20:31 40.89360 9.24006 9106 ft 237 kts 234°
2026-04-28 20:31 40.88432 9.22245 8971 ft 232 kts 234°
2026-04-28 20:31 40.87514 9.20501 8814 ft 232 kts 234°
2026-04-28 20:31 40.86588 9.18743 8674 ft 232 kts 234°
2026-04-28 20:32 40.85674 9.17006 8524 ft 231 kts 234°
2026-04-28 20:32 40.84749 9.15252 8382 ft 231 kts 234°
2026-04-28 20:32 40.83837 9.13523 8241 ft 230 kts 234°
2026-04-28 20:32 40.82926 9.11806 8108 ft 231 kts 234°
2026-04-28 20:33 40.82003 9.10066 7953 ft 229 kts 234°
2026-04-28 20:33 40.81083 9.08333 7828 ft 230 kts 234°
2026-04-28 20:33 40.80164 9.06603 7678 ft 229 kts 234°
2026-04-28 20:33 40.79248 9.04880 7547 ft 229 kts 234°
2026-04-28 20:34 40.78338 9.03165 7369 ft 229 kts 234°
2026-04-28 20:34 40.77514 9.01400 7253 ft 228 kts 249°
2026-04-28 20:34 40.77425 8.99339 7123 ft 230 kts 285°
2026-04-28 20:34 40.78307 8.97615 7155 ft 234 kts 322°
2026-04-28 20:35 40.79836 8.96883 7245 ft 240 kts 358°
2026-04-28 20:35 40.81455 8.97459 7346 ft 242 kts 34°
2026-04-28 20:35 40.82515 8.99053 7232 ft 233 kts 69°
2026-04-28 20:35 40.82697 9.01137 6841 ft 230 kts 106°
2026-04-28 20:36 40.81908 9.02894 6504 ft 224 kts 143°
2026-04-28 20:36 40.80513 9.03624 6174 ft 220 kts 179°
2026-04-28 20:36 40.79050 9.03119 5983 ft 214 kts 205°
2026-04-28 20:36 40.77716 9.02210 5979 ft 220 kts 207°
2026-04-28 20:37 40.76300 9.01403 5968 ft 220 kts 191°
2026-04-28 20:37 40.74771 9.01425 5972 ft 221 kts 165°
2026-04-28 20:37 40.73434 9.02369 5975 ft 223 kts 137°
2026-04-28 20:37 40.72581 9.04062 5979 ft 226 kts 113°
2026-04-28 20:38 40.72052 9.06019 5979 ft 227 kts 111°
2026-04-28 20:38 40.71528 9.07968 5982 ft 227 kts 111°
2026-04-28 20:38 40.70994 9.09944 5982 ft 227 kts 111°
2026-04-28 20:38 40.70472 9.11888 5981 ft 226 kts 110°
2026-04-28 20:39 40.70323 9.13895 5980 ft 224 kts 78°
2026-04-28 20:39 40.70954 9.15753 5988 ft 224 kts 59°
2026-04-28 20:39 40.71829 9.17473 5986 ft 225 kts 57°
2026-04-28 20:39 40.72720 9.19171 5981 ft 224 kts 57°
2026-04-28 20:40 40.73609 9.20852 5983 ft 225 kts 57°
2026-04-28 20:40 40.74516 9.22570 5854 ft 230 kts 57°
2026-04-28 20:40 40.75433 9.24309 5468 ft 234 kts 56°
2026-04-28 20:40 40.76362 9.26068 5166 ft 232 kts 56°
2026-04-28 20:41 40.77286 9.27818 4756 ft 232 kts 56°
2026-04-28 20:41 40.78190 9.29531 4449 ft 224 kts 56°
2026-04-28 20:41 40.79077 9.31216 4113 ft 218 kts 57°
2026-04-28 20:41 40.79911 9.32797 3817 ft 208 kts 57°
2026-04-28 20:42 40.80727 9.34347 3470 ft 201 kts 57°
2026-04-28 20:42 40.81508 9.35832 3168 ft 193 kts 57°
2026-04-28 20:42 40.82259 9.37258 2844 ft 185 kts 57°
2026-04-28 20:42 40.82973 9.38615 2588 ft 171 kts 57°
2026-04-28 20:43 40.83622 9.39848 2334 ft 161 kts 57°
2026-04-28 20:43 40.84223 9.40988 2148 ft 143 kts 58°
2026-04-28 20:43 40.84764 9.42020 1891 ft 134 kts 58°
2026-04-28 20:43 40.85281 9.43004 1684 ft 126 kts 58°
2026-04-28 20:44 40.85775 9.43947 1495 ft 124 kts 58°
2026-04-28 20:44 40.86265 9.44885 1303 ft 122 kts 57°
2026-04-28 20:44 40.86745 9.45800 1123 ft 122 kts 57°
2026-04-28 20:44 40.87233 9.46732 935 ft 123 kts 57°
2026-04-28 20:45 40.87720 9.47661 745 ft 124 kts 57°
2026-04-28 20:45 40.88208 9.48591 551 ft 125 kts 56°
2026-04-28 20:45 40.88710 9.49532 333 ft 125 kts 56°
2026-04-28 20:45 40.89198 9.50473 145 ft 124 kts 57°
2026-04-28 20:46 40.89677 9.51393 46 ft 113 kts 57°
2026-04-28 20:46 40.90039 9.52095 46 ft 64 kts 56°
2026-04-28 20:46 40.90197 9.52397 45 ft 18 kts 55°
2026-04-28 20:46 40.90277 9.52545 45 ft 23 kts 54°
2026-04-28 20:47 40.90360 9.52682 45 ft 18 kts 27°
2026-04-28 20:47 40.90447 9.52631 45 ft 15 kts 283°
2026-04-28 20:47 40.90449 9.52478 45 ft 6 kts 232°
2026-04-28 20:47 40.90407 9.52402 45 ft 13 kts 234°
2026-04-28 20:48 40.90338 9.52271 45 ft 20 kts 236°
2026-04-28 20:48 40.90246 9.52093 45 ft 23 kts 235°
2026-04-28 20:48 40.90212 9.52030 45 ft 10 kts 233°
2026-04-28 20:48 40.90156 9.51925 45 ft 17 kts 236°
2026-04-28 20:49 40.90072 9.51766 45 ft 24 kts 234°
2026-04-28 20:49 40.89967 9.51561 45 ft 29 kts 234°
2026-04-28 20:49 40.89838 9.51317 45 ft 25 kts 236°
2026-04-28 20:49 40.89743 9.51138 45 ft 26 kts 234°
2026-04-28 20:50 40.89630 9.50918 45 ft 31 kts 235°
2026-04-28 20:50 40.89570 9.50794 45 ft 11 kts 255°
2026-04-28 20:50 40.89618 9.50706 45 ft 15 kts 324°
2026-04-28 20:50 40.89717 9.50610 45 ft 11 kts 303°
2026-04-28 20:51 40.89695 9.50554 45 ft 9 kts 236°
2026-04-28 20:51 40.89645 9.50456 45 ft 15 kts 236°
2026-04-28 20:51 40.89600 9.50371 45 ft 0 kts 233°
2026-04-28 20:51 40.89598 9.50344 46 ft 5 kts 314°
2026-04-28 20:52 40.89626 9.50323 46 ft 4 kts 16°
2026-04-28 20:52 40.89630 9.50352 46 ft 2 kts 122°
2026-04-28 20:52 40.89628 9.50357 46 ft 0 kts 101°